Bad Axe, MI

4:36 AM EDT on October 23, 2019 (GMT -0400)
Huron County Memorial

Weather History for KBAX - September, 2019

Change the Weather History Date:

Saturday, September 14, 2019

  Actual Average (WUND) Record (WUND)
Temperature  
Mean Temperature 62 °F -  
Max Temperature 71 °F - - (-1)
Min Temperature 53 °F - - (-1)
Degree Days  
Heating Degree Days 3    
Growing Degree Days 12 (Base 50)    
Moisture  
Dew Point 51 °F    
Average Humidity 67    
Maximum Humidity 94    
Minimum Humidity 44    
Precipitation  
Precipitation 0.00 in - - ()
Sea Level Pressure  
Sea Level Pressure 30.11 in    
Wind  
Wind Speed 9 mph ()    
Max Wind Speed 17 mph    
Max Gust Speed 28 mph    
Visibility 9.9 miles    
Events      
Averages and records for this station are not official NWS values.
T = Trace of Precipitation, MM = Missing Value Source: Averaged Metar Reports

Daily Weather History Graph

Daily Weather History Graph

Search for Another Location

Airport or City:

Astronomy

Sep. 14, 2019 Rise Set
Actual Time 7:09 AM EDT 7:44 PM EDT
Civil Twilight 6:40 AM EDT 8:13 PM EDT
Nautical Twilight 6:06 AM EDT 8:47 PM EDT
Astronomical Twilight 5:31 AM EDT 9:22 PM EDT
Moon 8:25 PM EDT (9/14) 7:20 AM EDT (9/14)
Length of Visible Light 13h 32m
Length of Day
12h 34m
Full, 100% of the Moon is Illuminated
Sep 14
Full
Sep 21
Last Quarter
Sep 28
New
Oct 5
First Quarter
Oct 13
Full

Hourly Weather History & Observations

Time (EDT) Temp. Dew Point Humidity Pressure Visibility Wind Dir Wind Speed Gust Speed Precip Events Conditions
12:16 AM 63.7 °F 55.8 °F 75% 30.01 in 10.0 mi West 9.2 mph - N/A   Scattered Clouds
12:35 AM 62.8 °F 54.5 °F 74% 30.01 in 10.0 mi West 10.4 mph - N/A   Clear
12:55 AM 61.7 °F 53.8 °F 75% 30.02 in 10.0 mi West 10.4 mph - N/A   Clear
1:19 AM 60.8 °F 53.6 °F 77% 30.03 in 10.0 mi WSW 9.2 mph - N/A   Clear
1:37 AM 59.9 °F 54.0 °F 81% 30.03 in 10.0 mi WSW 5.8 mph - N/A   Clear
1:55 AM 60.8 °F 54.3 °F 79% 30.03 in 10.0 mi WSW 10.4 mph 16.1 mph N/A   Mostly Cloudy
2:15 AM 61.3 °F 54.0 °F 77% 30.04 in 10.0 mi WSW 10.4 mph - N/A   Overcast
2:35 AM 61.5 °F 53.2 °F 74% 30.04 in 10.0 mi WSW 10.4 mph 16.1 mph N/A   Overcast
2:40 AM 61.3 °F 53.2 °F 75% 30.04 in 10.0 mi WSW 10.4 mph - N/A   Overcast
2:58 AM 61.2 °F 53.2 °F 75% 30.04 in 10.0 mi WSW 8.1 mph - N/A   Overcast
3:16 AM 61.7 °F 52.0 °F 70% 30.03 in 10.0 mi West 10.4 mph 18.4 mph N/A   Overcast
3:35 AM 61.7 °F 50.4 °F 66% 30.04 in 10.0 mi West 9.2 mph 18.4 mph N/A   Overcast
3:36 AM 61.7 °F 50.2 °F 66% 30.04 in 10.0 mi West 10.4 mph 18.4 mph N/A   Overcast
3:55 AM 61.7 °F 50.9 °F 68% 30.05 in 10.0 mi West 6.9 mph - N/A   Overcast
4:19 AM 61.2 °F 51.8 °F 71% 30.04 in 10.0 mi West 5.8 mph 16.1 mph N/A   Overcast
4:37 AM 60.8 °F 52.3 °F 74% 30.05 in 10.0 mi WSW 5.8 mph - N/A   Overcast
4:55 AM 60.6 °F 52.7 °F 75% 30.05 in 10.0 mi SW 5.8 mph - N/A   Overcast
5:15 AM 60.4 °F 52.9 °F 76% 30.05 in 10.0 mi SW 8.1 mph - N/A   Overcast
5:35 AM 60.4 °F 53.4 °F 78% 30.06 in 10.0 mi SW 8.1 mph - N/A   Overcast
5:40 AM 60.4 °F 53.4 °F 78% 30.06 in 10.0 mi SW 8.1 mph - N/A   Overcast
5:58 AM 60.8 °F 53.1 °F 76% 30.06 in 10.0 mi WSW 10.4 mph 16.1 mph N/A   Overcast
6:16 AM 60.8 °F 52.2 °F 73% 30.06 in 10.0 mi WSW 12.7 mph 18.4 mph N/A   Overcast
6:35 AM 60.8 °F 52.0 °F 73% 30.07 in 10.0 mi West 8.1 mph - N/A   Overcast
6:55 AM 61.0 °F 50.9 °F 69% 30.07 in 10.0 mi West 10.4 mph - N/A   Overcast
6:56 AM 61.0 °F 50.9 °F 69% 30.07 in 10.0 mi West 9.2 mph - N/A   Overcast
7:18 AM 60.3 °F 52.7 °F 76% 30.08 in 10.0 mi West 9.2 mph - N/A   Overcast
7:37 AM 60.3 °F 52.5 °F 76% 30.09 in 10.0 mi West 16.1 mph 24.2 mph N/A   Overcast
7:55 AM 59.5 °F 48.9 °F 68% 30.09 in 10.0 mi West 15.0 mph 23.0 mph N/A   Mostly Cloudy
7:56 AM 59.4 °F 48.9 °F 68% 30.09 in 10.0 mi West 15.0 mph 23.0 mph N/A   Scattered Clouds
8:15 AM 59.5 °F 48.7 °F 67% 30.10 in 10.0 mi West 9.2 mph 18.4 mph N/A   Clear
8:16 AM 59.7 °F 48.9 °F 67% 30.10 in 10.0 mi West 12.7 mph 19.6 mph N/A   Clear
8:35 AM 60.3 °F 49.1 °F 67% 30.11 in 10.0 mi WSW 9.2 mph 17.3 mph N/A   Clear
8:39 AM 60.4 °F 49.5 °F 67% 30.11 in 10.0 mi West 11.5 mph 17.3 mph N/A   Clear
8:58 AM 61.2 °F 49.8 °F 66% 30.12 in 10.0 mi West 10.4 mph 19.6 mph N/A   Clear
9:16 AM 61.9 °F 48.9 °F 62% 30.13 in 10.0 mi West 12.7 mph 19.6 mph N/A   Clear
9:35 AM 62.4 °F 48.9 °F 61% 30.14 in 10.0 mi West 11.5 mph 20.7 mph N/A   Clear
9:55 AM 63.0 °F 49.3 °F 61% 30.14 in 10.0 mi West 15.0 mph 23.0 mph N/A   Clear
9:56 AM 63.1 °F 49.3 °F 61% 30.14 in 10.0 mi West 16.1 mph 23.0 mph N/A   Clear
10:19 AM 63.7 °F 49.3 °F 59% 30.14 in 10.0 mi West 13.8 mph 21.9 mph N/A   Scattered Clouds
10:37 AM 64.0 °F 48.9 °F 58% 30.14 in 10.0 mi West 16.1 mph 21.9 mph N/A   Scattered Clouds
10:55 AM 64.2 °F 49.5 °F 59% 30.14 in 10.0 mi WSW 17.3 mph 24.2 mph N/A   Scattered Clouds
11:15 AM 65.3 °F 50.4 °F 58% 30.14 in 10.0 mi West 17.3 mph 23.0 mph N/A   Scattered Clouds
11:35 AM 65.7 °F 50.2 °F 57% 30.14 in 10.0 mi West 12.7 mph 24.2 mph N/A   Clear
11:40 AM 66.2 °F 49.6 °F 55% 30.14 in 10.0 mi West 13.8 mph 24.2 mph N/A   Clear
11:58 AM 66.7 °F 48.6 °F 52% 30.14 in 10.0 mi West 15.0 mph 21.9 mph N/A   Clear
12:16 PM 66.9 °F 48.4 °F 51% 30.14 in 10.0 mi West 13.8 mph 21.9 mph N/A   Clear
12:35 PM 67.1 °F 48.4 °F 51% 30.14 in 10.0 mi West 17.3 mph 26.5 mph N/A   Clear
12:36 PM 67.1 °F 48.4 °F 51% 30.14 in 10.0 mi West 16.1 mph 26.5 mph N/A   Clear
12:55 PM 68.0 °F 48.7 °F 50% 30.14 in 10.0 mi WSW 13.8 mph 20.7 mph N/A   Clear
1:19 PM 68.2 °F 48.6 °F 49% 30.13 in 10.0 mi West 15.0 mph 21.9 mph N/A   Clear
1:55 PM 69.1 °F 47.1 °F 45% 30.14 in 10.0 mi West 15.0 mph 26.5 mph N/A   Clear
2:15 PM 70.0 °F 47.7 °F 45% 30.14 in 10.0 mi West 15.0 mph 24.2 mph N/A   Clear
2:35 PM 70.3 °F 47.5 °F 44% 30.13 in 10.0 mi West 16.1 mph 23.0 mph N/A   Clear
2:40 PM 70.0 °F 48.0 °F 46% 30.13 in 10.0 mi WSW 17.3 mph 26.5 mph N/A   Clear
2:58 PM 70.2 °F 48.7 °F 46% 30.13 in 10.0 mi West 13.8 mph 27.6 mph N/A   Clear
3:16 PM 70.9 °F 48.6 °F 45% 30.13 in 10.0 mi West 13.8 mph 21.9 mph N/A   Clear
3:35 PM 71.1 °F 48.7 °F 45% 30.12 in 10.0 mi West 13.8 mph 18.4 mph N/A   Clear
3:55 PM 70.9 °F 47.8 °F 44% 30.12 in 10.0 mi West 12.7 mph 21.9 mph N/A   Clear
4:19 PM 70.9 °F 49.5 °F 47% 30.12 in 10.0 mi West 17.3 mph 23.0 mph N/A   Clear
4:37 PM 71.1 °F 49.5 °F 46% 30.13 in 10.0 mi WSW 11.5 mph - N/A   Clear
4:55 PM 70.9 °F 49.3 °F 46% 30.13 in 10.0 mi WSW 8.1 mph - N/A   Clear
4:56 PM 70.9 °F 49.6 °F 47% 30.12 in 10.0 mi West 10.4 mph 16.1 mph N/A   Clear
5:15 PM 71.1 °F 49.5 °F 46% 30.12 in 10.0 mi West 15.0 mph 19.6 mph N/A   Clear
5:35 PM 70.7 °F 50.4 °F 48% 30.12 in 10.0 mi West 10.4 mph 17.3 mph N/A   Clear
5:58 PM 70.7 °F 50.4 °F 48% 30.12 in 10.0 mi West 9.2 mph 17.3 mph N/A   Clear
6:16 PM 70.2 °F 51.6 °F 52% 30.12 in 10.0 mi West 8.1 mph 17.3 mph N/A   Clear
6:36 PM 69.4 °F 52.0 °F 54% 30.12 in 10.0 mi WNW 6.9 mph - N/A   Clear
6:55 PM 68.4 °F 53.1 °F 58% 30.12 in 10.0 mi NNW 5.8 mph - N/A   Clear
6:56 PM 68.4 °F 53.1 °F 58% 30.12 in 10.0 mi NNW 5.8 mph - N/A   Clear
7:19 PM 66.6 °F 53.4 °F 63% 30.12 in 10.0 mi Calm Calm - N/A   Clear
7:37 PM 65.3 °F 53.6 °F 66% 30.12 in 10.0 mi Calm Calm - N/A   Clear
7:55 PM 63.1 °F 54.9 °F 74% 30.13 in 10.0 mi Calm Calm - N/A   Clear
7:56 PM 62.4 °F 54.9 °F 76% 30.13 in 10.0 mi Calm Calm - N/A   Clear
8:15 PM 59.9 °F 54.9 °F 83% 30.13 in 7.0 mi Calm Calm - N/A   Clear
8:16 PM 59.9 °F 54.9 °F 83% 30.13 in 7.0 mi Calm Calm - N/A   Clear
8:40 PM 56.8 °F 53.2 °F 88% 30.13 in 10.0 mi Calm Calm - N/A   Clear
8:58 PM 57.0 °F 54.1 °F 90% 30.14 in 10.0 mi Calm Calm - N/A   Clear
9:16 PM 56.3 °F 53.6 °F 91% 30.14 in 10.0 mi Calm Calm - N/A   Clear
9:35 PM 54.0 °F 52.0 °F 93% 30.14 in 10.0 mi Calm Calm - N/A   Clear
9:36 PM 54.0 °F 52.0 °F 93% 30.14 in 10.0 mi Calm Calm - N/A   Clear
10:19 PM 53.2 °F 50.9 °F 92% 30.14 in 10.0 mi Calm Calm - N/A   Clear
10:37 PM 53.8 °F 51.4 °F 92% 30.15 in 10.0 mi SSW 4.6 mph - N/A   Clear
10:55 PM 53.2 °F 50.9 °F 92% 30.15 in 10.0 mi South 3.5 mph - N/A   Clear
10:56 PM 53.2 °F 50.9 °F 92% 30.15 in 10.0 mi South 3.5 mph - N/A   Clear
11:15 PM 53.4 °F 51.3 °F 92% 30.16 in 10.0 mi South 3.5 mph - N/A   Clear
11:16 PM 53.2 °F 51.1 °F 92% 30.16 in 10.0 mi SSE 3.5 mph - N/A   Clear
11:35 PM 53.6 °F 51.8 °F 94% 30.16 in 10.0 mi South 3.5 mph - N/A   Clear
11:58 PM 55.8 °F 53.2 °F 91% 30.17 in 10.0 mi Calm Calm - N/A   Clear